Location: Marambat
(43.7718°N, 0.3137°E)
Time: 14:16:52
(UTC+00:00)

Daily predictions for brighter satellites

Satellite Brightness Start Highest point End
(mag) Time Altitude Azimuth Time Altitude Azimuth Time Altitude Azimuth
Cosmos 2098 Rocket 4.3 18:46:22 10° NNW 18:49:46 42° W 18:53:56 10° SSW
STARLINK-1229 3.5 18:47:06 10° WSW 18:50:10 56° NNW 18:53:15 10° NE
STARLINK-1236 3.6 18:46:11 10° SW 18:50:15 79° SE 18:54:20 10° ENE
Cosmos 304 Rocket 4.0 18:45:54 10° NNW 18:50:36 53° ENE 18:55:16 10° SE
STARLINK-1271 3.6 18:47:33 10° WSW 18:50:37 55° NNW 18:53:42 10° NE
STARLINK-1270 3.6 18:48:01 10° WSW 18:51:05 55° NNW 18:54:09 10° NE
COSMO-SKYMED 1 4.4 18:47:21 10° N 18:51:22 37° WNW 18:55:21 10° SW
STARLINK-1154 3.6 18:48:28 10° WSW 18:51:31 54° NNW 18:54:36 10° NE
STARLINK-1116 4.0 18:48:13 10° NW 18:52:10 50° NNE 18:56:07 10° ESE
STARLINK-1197 3.6 18:49:22 10° WSW 18:52:26 53° NNW 18:55:30 10° NE
SeaSat 1 3.5 18:47:44 10° NNE 18:52:30 51° WNW 18:57:15 10° SW
Cosmos 1269 Rocket 4.3 18:47:48 10° S 18:52:48 45° ESE 18:57:51 10° NNE
STARLINK-1189 3.6 18:49:50 10° WSW 18:52:53 53° NNW 18:55:57 10° NE
STARLINK-1187 3.9 18:50:43 10° WSW 18:53:45 47° NNW 18:56:49 10° NE
STARLINK-1188 3.7 18:50:45 10° WSW 18:53:47 52° NNW 18:56:52 10° NE
STARLINK-1198 3.7 18:50:45 10° WSW 18:53:48 52° NNW 18:56:52 10° NE
STARLINK-1235 4.1 18:51:29 10° W 18:54:28 42° NNW 18:57:30 10° NE
STARLINK-1199 3.7 18:52:41 10° WSW 18:55:44 50° NNW 18:58:49 10° NE
STARLINK-1191 3.8 18:53:08 10° WSW 18:56:12 50° NNW 18:59:16 10° NE
SL-08 ROCKET BODY 4.5 18:50:12 10° N 18:56:19 66° E 19:02:17 10° SSE
STARLINK-1210 3.8 18:53:36 10° WSW 18:56:38 49° NNW 18:59:44 10° NE
STARLINK-1221 3.8 18:54:03 10° WSW 18:57:06 49° NNW 19:00:10 10° NE
STARLINK-1219 3.8 18:54:31 10° WSW 18:57:34 49° NNW 19:00:38 10° NE
STARLINK-1222 3.8 18:54:58 10° WSW 18:58:01 48° NNW 19:01:05 10° NE
STARLINK-1118 3.2 18:56:17 10° WNW 18:58:21 37° SW 19:00:24 10° SSE
STARLINK-1211 3.8 18:55:25 10° WSW 18:58:28 48° NNW 19:01:31 10° NE
YAOGAN 1 3.6 18:54:28 10° S 18:58:40 51° W 19:02:55 10° NNW
STARLINK-1214 3.8 18:55:52 10° WSW 18:58:54 47° NNW 19:01:58 10° NE
ISS -1.8 18:56:25 10° NW 18:59:06 21° N 19:01:46 10° ENE
STARLINK-1245 3.9 18:56:21 10° WSW 18:59:22 47° NNW 19:02:24 10° NE
STARLINK-1238 3.9 18:56:44 10° WSW 18:59:47 47° NNW 19:02:50 10° NE
STARLINK-1269 3.6 18:56:01 10° SW 19:00:05 88° NW 19:04:11 10° NE
STARLINK-1205 3.9 18:57:40 10° WSW 19:00:41 46° NNW 19:03:43 10° NE
Cosmos 1455 Rocket 3.1 18:56:36 10° S 19:00:49 56° E 19:05:06 10° NNE
STARLINK-1204 3.9 18:58:09 10° WSW 19:01:10 45° NNW 19:04:11 10° NE
STARLINK-1094 3.8 18:57:27 10° NW 19:01:27 57° NNE 19:05:21 11° ESE
Cosmos 371 Rocket 4.1 18:57:25 10° NNW 19:02:08 56° WSW 19:06:51 10° S
Cosmos 2297 4.0 18:56:40 10° NNW 19:02:10 49° ENE 19:07:40 10° SE
S3M 4.1 18:58:17 10° S 19:04:39 85° E 19:11:05 10° N
STARLINK-1200 3.7 19:00:49 10° WSW 19:04:54 82° NNW 19:09:00 10° NE
Cosmos 2237 Rocket 2.8 18:59:38 10° SW 19:05:12 63° WNW 19:10:49 10° NNE
STARLINK-1117 3.7 19:02:18 10° NW 19:06:19 62° NNE 19:10:00 12° ESE
Cosmos 1386 Rocket 4.4 19:01:19 10° N 19:07:24 81° E 19:13:24 10° S
Cosmos 1805 3.7 19:05:09 10° SSW 19:09:02 69° W 19:12:56 10° N
Cosmos 1892 Rocket 3.6 19:05:01 10° N 19:09:31 88° W 19:14:00 10° S
STARLINK-1192 3.7 19:05:35 10° WSW 19:09:39 76° NNW 19:13:45 10° NE
CZ-2C R/B 3.9 19:06:48 10° NE 19:10:08 17° E 19:13:26 10° SE
Cosmos 1626 Rocket 4.3 19:06:15 10° N 19:10:13 32° ENE 19:14:08 10° SE
STARLINK-1078 3.7 19:06:44 10° NW 19:10:46 66° NNE 19:14:17 13° ESE
BREEZE-M DEB (TANK) 3.7 18:59:41 10° WNW 19:12:26 65° SW 19:15:44 10° SE
Cosmos 2278 Rocket 3.5 19:07:48 10° NW 19:13:09 43° WSW 19:18:28 10° S
Meteor 2-5 Rocket 4.0 19:08:15 10° NNW 19:13:54 76° W 19:19:25 10° S
STARLINK-1244 3.8 19:10:31 10° WSW 19:14:34 71° NNW 19:18:40 10° NE
ARGOS 3.4 19:09:58 10° SE 19:15:11 52° ENE 19:20:25 10° N
STARLINK-1108 3.6 19:11:35 10° NW 19:15:38 71° NNE 19:18:58 15° ESE
Cosmos 1602 Rocket 4.4 19:14:15 10° NNE 19:18:14 31° ENE 19:21:45 12° SE
STARLINK-1138 3.9 19:15:07 10° WSW 19:19:12 66° NNW 19:23:16 10° NE
STARLINK-1071 3.6 19:16:14 10° NW 19:20:18 77° NNE 19:23:26 16° ESE
Cosmos 494 Rocket 4.3 19:16:02 10° SSW 19:21:09 72° WNW 19:26:22 10° NNE
Okean 1-7 Rocket 3.7 19:17:08 10° NNW 19:21:32 77° W 19:25:54 10° S
USA 186 1.9 19:19:02 10° SSE 19:22:25 59° ENE 19:25:46 10° N
STARLINK-1143 4.1 19:20:02 10° WSW 19:24:05 62° NNW 19:28:09 10° NE
STARLINK-1110 3.5 19:20:42 10° NW 19:24:46 82° NE 19:27:43 18° ESE
Meteor 1-24 Rocket 3.7 19:19:38 10° NNW 19:25:10 82° W 19:30:30 10° S
STARLINK-1124 3.6 19:22:04 10° NW 19:26:14 84° NE 19:29:13 18° ESE
CZ-2C R/B 2.9 19:22:32 10° SSE 19:27:35 69° ENE 19:32:26 10° N
Cosmos 1544 Rocket 3.5 19:24:00 10° S 19:28:23 83° E 19:32:50 10° N
Cosmos 1470 2.8 19:26:42 10° S 19:30:27 52° E 19:34:15 10° NNE
Cosmos 1331 Rocket 4.3 19:25:31 10° NNW 19:30:39 69° WSW 19:35:45 10° S
STARLINK-1241 4.3 19:28:28 10° WSW 19:32:27 54° NNW 19:36:26 10° NE
Cosmos 883 Rocket 4.5 19:27:29 10° S 19:33:41 86° E 19:39:58 10° N
CZ-4 R/B 4.4 19:31:48 10° SW 19:34:00 15° W 19:36:13 10° WNW
STARLINK-1122 3.5 19:30:08 10° NW 19:34:13 86° SW 19:36:48 22° SE
SPOT 3 Rocket 3.9 19:29:48 12° SE 19:34:22 47° ENE 19:39:22 10° N
MOS 1 4.2 19:30:35 10° SSE 19:36:14 84° ENE 19:41:55 10° NNW
STARLINK-1239 4.4 19:33:25 10° WSW 19:37:22 50° NNW 19:41:20 10° NE
STARLINK-1126 3.6 19:35:07 10° WNW 19:39:11 79° SW 19:41:36 24° SE
Cosmos 2369 Rocket 3.1 19:35:19 10° N 19:40:26 33° NE 19:43:14 22° E
SJ-6B 2.8 19:36:27 10° SSE 19:40:30 75° ENE 19:44:37 10° N
H-2A R/B 4.2 19:32:24 10° W 19:41:40 19° SW 19:45:19 10° S
STARLINK-1240 4.5 19:38:11 10° WSW 19:42:07 47° NNW 19:46:03 10° NE
Cosmos 1726 3.5 19:42:57 21° ENE 19:42:57 21° ENE 19:45:16 10° NE
Ariane Rocket 3.5 19:38:30 10° S 19:43:32 62° WSW 19:48:34 10° NNW
STARLINK-1082 3.6 19:39:36 10° WNW 19:43:41 74° SW 19:45:55 25° SE
Cosmos 1758 3.2 19:40:20 10° S 19:44:24 71° E 19:48:29 10° NNE
Aureole 2 Rocket 3.7 19:42:50 10° N 19:45:43 23° ENE 19:45:56 23° ENE
NOSS 3-3 (A) 4.4 19:41:50 10° S 19:46:58 34° ESE 19:52:37 10° NE
Cosmos 1758 Rocket 4.5 19:43:16 10° NNE 19:47:03 28° ENE 19:47:53 26° E
NOSS 3-3 (C) 4.4 19:41:58 10° S 19:47:05 34° ESE 19:52:42 10° NE
STARLINK-1130 (DARKSAT) 4.5 19:44:22 10° NW 19:48:17 39° NNE 19:50:10 25° ENE
STARLINK-1100 3.7 19:44:32 10° WNW 19:48:35 68° SW 19:50:39 27° SE
CZ-2C R/B 3.7 19:45:44 10° NNE 19:50:28 64° ESE 19:55:07 10° S
STARLINK-1084 4.4 19:49:19 10° NW 19:53:16 41° NNE 19:54:56 28° ENE
STARLINK-1083 3.8 19:49:18 10° WNW 19:53:20 62° SW 19:55:12 29° SSE
Cosmos 2184 Rocket 4.3 19:50:15 10° N 19:56:19 46° ENE 19:59:37 25° SE
IRIDIUM 106 4.3 19:51:25 10° N 19:56:35 58° E 20:00:12 19° SSE
STARLINK-1125 3.9 19:53:50 10° WNW 19:57:51 57° SW 19:59:33 31° SSE
SL-14 R/B 4.4 19:54:14 10° NNW 19:58:08 46° W 20:01:59 10° SSW
STARLINK-1098 4.3 19:54:18 10° NW 19:58:17 44° NNE 19:59:43 31° ENE
Cosmos 1943 Rocket 2.2 19:56:34 10° NNW 20:02:03 59° ENE 20:04:35 31° SE
Cosmos 1943 3.8 20:01:05 29° SE 20:02:23 32° ESE 20:07:22 10° NE
STARLINK-1109 4.1 19:58:40 10° WNW 20:02:39 53° SW 20:04:12 32° SSE
Meteor 1-21 Rocket 4.1 19:57:18 10° N 20:02:51 65° ENE 20:06:08 25° SSE
STARLINK-1123 4.2 19:59:16 10° NW 20:03:17 46° NNE 20:04:30 35° ENE
Meteor 2-10 4.2 20:00:44 16° SSE 20:04:45 50° E 20:10:04 10° NNE
SL-8 R/B 4.2 20:00:43 10° WNW 20:05:23 51° N 20:07:34 28° ENE
STARLINK-1091 4.2 20:03:31 10° WNW 20:07:28 48° SW 20:08:50 33° S
Resurs 1-3 3.5 20:05:32 32° SSE 20:07:30 73° ENE 20:11:53 10° N
STARLINK-1097 4.1 20:04:13 10° NW 20:08:16 50° NNE 20:09:16 40° ENE
Cosmos 1626 3.9 20:06:20 10° NNW 20:09:40 32° W 20:13:00 10° SSW
ATLAS 2AS CENTAUR R/B 4.0 20:04:07 10° NNW 20:10:51 31° NNE 20:14:22 21° ENE
STARLINK-1099 4.0 20:09:12 10° NW 20:13:16 53° NNE 20:14:04 45° ENE
H-2A R/B 3.3 20:09:12 10° SSW 20:14:11 40° W 20:19:05 10° NNW
Aureole 3 3.6 20:12:25 10° SSW 20:16:16 79° W 20:21:20 10° N
SL-08 RB Rocket 4.2 20:12:30 14° S 20:16:18 57° W 20:20:49 10° NNW
USA 234 3.3 20:10:43 10° NE 20:17:17 85° NW 20:23:49 10° SW
Resurs 01 Rocket 1.6 20:16:28 50° SE 20:17:24 65° ENE 20:21:47 10° N
Cosmos 2154 Rocket 4.4 20:11:23 10° N 20:17:24 43° ENE 20:18:59 37° ESE
STARLINK-1104 3.8 20:14:10 10° NW 20:18:16 57° NNE 20:18:51 51° ENE
SL-16 R/B 3.4 20:14:25 10° SW 20:19:49 44° WNW 20:25:14 10° NNE
DMSP B5D2-2 3.9 20:14:47 10° NNE 20:20:02 85° ESE 20:25:15 10° SSW
Cosmos 2228 3.8 20:22:39 35° NE 20:22:39 35° NE 20:25:38 10° NNE
Abrixas rocket 3.1 20:18:44 10° WSW 20:20:45 40° WSW 20:20:45 40° WSW
STARLINK-1144 3.7 20:19:09 10° NW 20:23:16 61° NNE 20:23:38 58° ENE
Cosmos 1953 2.4 20:23:07 24° SSW 20:25:26 72° W 20:29:24 10° N
STARLINK-1103 3.6 20:24:07 10° NW 20:28:14 65° NNE 20:28:25 64° NE
Cosmos 1992 Rocket 3.9 20:26:38 10° NNW 20:31:53 85° ENE 20:33:07 54° SSE
Nadezhda 1 Rocket 4.0 20:29:47 36° SSE 20:32:17 60° E 20:38:34 10° NNE
STARLINK-1101 3.6 20:29:05 10° NW 20:33:11 70° NNE 20:33:11 70° NNE
ISS -2.5 20:33:10 10° NW 20:35:39 39° NNW 20:35:39 39° NNW
STARLINK-1102 3.7 20:34:03 10° NW 20:37:58 73° N 20:37:58 73° N
MetOp-B 4.0 20:40:10 61° ESE 20:40:51 68° ENE 20:46:11 10° N
Cosmos 1603 3.5 20:35:48 10° SSW 20:41:27 84° ESE 20:47:06 10° NNE
Cosmos 2251 Rocket 3.7 20:37:04 10° SSW 20:42:23 71° WNW 20:47:47 10° NNE
Meteor 1-16 Rocket 4.0 20:40:19 32° S 20:42:53 89° W 20:48:22 10° N
STARLINK-1111 3.8 20:39:02 10° NW 20:42:45 69° NNW 20:42:45 69° NNW
Cosmos 2084 Rocket 3.5 20:39:02 10° NW 20:43:31 77° SW 20:43:31 77° SW
Cosmos 1703 4.1 20:41:04 10° N 20:43:49 42° N 20:43:49 42° N
ERS-1 Rocket 4.0 20:48:38 32° NE 20:48:38 32° NE 20:52:12 10° N
STARLINK-1073 4.0 20:44:01 10° NW 20:47:33 63° NW 20:47:33 63° NW
Landsat 7 4.4 20:49:40 43° NE 20:49:40 43° NE 20:53:23 10° N
Cosmos 2074 Rocket 4.2 20:43:41 10° NNW 20:49:56 70° W 20:53:01 32° S
CZ-2C R/B 3.0 20:45:44 10° N 20:50:51 62° WNW 20:55:39 12° SSW
STARLINK-1121 4.2 20:48:59 10° NW 20:52:19 56° WNW 20:52:19 56° WNW
Cosmos 292 Rocket 4.4 20:51:47 10° NNW 20:56:25 50° WSW 20:57:04 46° SW
STARLINK-1106 4.4 20:53:56 10° WNW 20:57:04 50° WNW 20:57:04 50° WNW
Cosmos 1656 Rocket 3.7 20:56:36 10° NNW 21:02:03 65° NE 21:02:03 65° NE
Aureole 1 Rocket 4.3 21:01:50 56° SE 21:03:04 63° ESE 21:09:46 10° NNE
Cosmos 1610 Rocket 4.4 20:58:03 10° N 21:04:18 82° W 21:05:25 62° S
Meteor 1-11 4.1 20:58:37 10° N 21:04:27 82° E 21:04:29 82° E
COSMOS 2455 4.0 21:10:03 10° NNW 21:15:09 31° NE 21:15:09 31° NE
Cosmos 1726 4.3 21:17:22 24° WNW 21:17:24 24° WNW 21:20:30 10° NNW
Cosmos 2341 Rocket 4.0 21:16:46 10° N 21:22:43 73° NE 21:22:43 73° NE
Cosmos 2369 Rocket 3.1 21:19:14 10° NW 21:24:33 41° WSW 21:25:03 40° WSW
NOSS 3-4 (A) 3.9 21:22:58 10° NNW 21:29:55 65° NE 21:30:09 64° ENE
NOSS 3-4 (C) 3.9 21:23:04 10° NNW 21:30:01 64° NE 21:30:14 64° ENE
Terra 3.5 21:32:45 27° N 21:32:45 27° N 21:35:03 10° N
Spot 2 Rocket 4.4 21:35:52 43° W 21:35:52 43° W 21:40:17 10° NNW
SPOT 1/Viking Rocket 4.4 21:41:27 48° NW 21:41:27 48° NW 21:45:24 10° NNW
Cosmos 1943 Rocket 4.1 21:41:20 10° NW 21:45:18 20° W 21:46:08 20° WSW
Cosmos 1943 4.4 21:42:19 17° WSW 21:46:17 40° WNW 21:51:39 10° NNE
Resurs 01 Rocket 4.3 21:54:01 12° W 21:54:19 13° W 21:56:14 10° WNW
ATLAS 2AS CENTAUR R/B 2.9 21:55:07 10° NW 22:01:48 70° WNW 22:01:48 70° WNW
